Location: Cuguron
(43.0994°N, 0.5363°E)
Time: 10:52:16
(UTC+00:00)

Spot 2 Rocket - Pass Details

Date: 15 May 2026
Orbit: 752 x 765 km, 98.3° (Epoch: 6 June)

Event Time Altitude Azimuth Distance (km) Brightness Sun altitude
Exits shadow 21:03:00 18° 180° (S) 1,790 5.0 -16.5°
Maximum altitude 21:06:43 64° 258° (WSW) 836 3.8 -16.9°
Drops below altitude 10° 21:11:43 10° 341° (NNW) 2,290 7.0 -17.5°
Sets 21:14:04 0° 344° (NNW) 3,222 8.0 -17.8°
